This demonstration page uses our WeatherBlox Daily Observations layout. Learn more.

Hourly Observations for June 7, 2015

Temp ( °F °C ) Dew Point ( °F °C ) Humidity (%) Winds ( mph kmh ) Pressure ( in mb ) Visibility ( mi km ) Precip ( " mm )
12:15 am 00:15 Mostly Cloudy 73 22.9 64 17.9 74 74 SSW 18 30 29.74 1007 10 16.0934 0 0
12:35 am 00:35 Mostly Cloudy 72 22.4 61 16.3 69 69 SW 12 19 29.74 1007 10 16.0934 0 0
12:55 am 00:55 Partly Cloudy 72 22.2 61 16 68 68 SW 12 19 29.74 1007 10 16.0934 0 0
1:15 am 01:15 Mostly Cloudy 72 22 61 16.3 70 70 SW 9 15 29.71 1006 10 16.0934 0 0
1:35 am 01:35 Mostly Cloudy 71 21.5 62 16.4 73 73 WSW 8 13 29.74 1007 10 16.0934 0 0
1:55 am 01:55 Mostly Cloudy 70 21.2 63 17 77 77 NW 10 17 29.77 1008 10 16.0934 0 0
2:15 am 02:15 Partly Cloudy 71 21.5 62 16.7 74 74 WNW 5 7 29.71 1006 10 16.0934 0 0
2:35 am 02:35 Clear 69 20.8 62 16.7 77 77 NW 5 7 29.74 1007 10 16.0934 0 0
2:55 am 02:55 Clear 69 20.7 61 16.2 76 76 WNW 6 9 29.74 1007 10 16.0934 0 0
3:15 am 03:15 Clear 67 19.6 62 16.5 82 82 NW 5 7 29.74 1007 10 16.0934 0 0
3:35 am 03:35 Clear 67 19.7 61 16.3 81 81 N 6 9 29.74 1007 10 16.0934 0 0
3:55 am 03:55 Clear 67 19.3 62 16.6 84 84 N 8 13 29.71 1006 10 16.0934 0 0
4:15 am 04:15 Clear 67 19.4 61 16.1 81 81 N 5 7 29.74 1007 10 16.0934 0 0
4:35 am 04:35 Clear 66 19 61 16.2 84 84 N 5 7 29.74 1007 10 16.0934 0 0
4:55 am 04:55 Clear 65 18.6 61 16.1 85 85 N 3 6 29.74 1007 10 16.0934 0 0
5:15 am 05:15 Clear 64 17.6 60 15.7 89 89 Calm 29.74 1007 10 16.0934 0 0
5:35 am 05:35 Clear 63 17.4 60 15.5 89 89 ESE 5 7 29.77 1008 10 16.0934 0 0
5:55 am 05:55 Clear 63 17 60 15.5 91 91 E 5 7 29.77 1008 10 16.0934 0 0
6:15 am 06:15 Sunny 63 17.2 60 15.7 91 91 ENE 3 6 29.77 1008 10 16.0934 0 0
6:35 am 06:35 Sunny 63 17.1 60 15.5 90 90 Calm 29.8 1009 10 16.0934 0 0
6:55 am 06:55 Sunny 65 18.2 61 16.2 88 88 ENE 5 7 29.74 1007 10 16.0934 0 0
7:15 am 07:15 Sunny 65 18.5 62 16.5 88 88 ENE 3 6 29.77 1008 10 16.0934 0 0
7:35 am 07:35 Sunny 67 19.3 62 16.6 84 84 ENE 3 6 29.77 1008 10 16.0934 0 0
7:55 am 07:55 Sunny 68 20 62 16.6 81 81 NE 8 13 29.77 1008 10 16.0934 0 0
8:15 am 08:15 Sunny 69 20.6 62 16.6 78 78 NE 6 9 29.8 1009 10 16.0934 0 0
8:35 am 08:35 Sunny 70 20.9 62 16.6 77 77 NNE 6 9 29.8 1009 10 16.0934 0 0
8:55 am 08:55 Partly Cloudy 71 21.4 63 17.1 77 77 NNE 10 17 29.8 1009 10 16.0934 0 0
9:15 am 09:15 Sunny 71 21.6 63 17.2 76 76 NNE 9 15 29.77 1008 10 16.0934 0 0
9:35 am 09:35 Sunny 72 22.2 63 17.4 74 74 NNE 8 13 29.77 1008 10 16.0934 0 0
9:55 am 09:55 Sunny 73 22.6 64 17.8 74 74 NE 10 17 29.74 1007 10 16.0934 0 0
10:15 am 10:15 Sunny 73 23 64 17.7 72 72 NNE 10 17 29.77 1008 10 16.0934 0 0
10:35 am 10:35 Sunny 74 23.2 64 18 73 73 N 12 19 29.77 1008 10 16.0934 0 0
10:55 am 10:55 Mostly Cloudy 73 22.8 64 17.5 72 72 N 15 24 29.8 1009 10 16.0934 0 0
11:15 am 11:15 Cloudy 73 22.7 63 17 70 70 N 15 24 29.8 1009 10 16.0934 0 0
11:35 am 11:35 Cloudy 72 22.4 61 16 67 67 NNW 18 30 29.85 1011 10 16.0934 0 0
11:55 am 11:55 Mostly Cloudy 73 22.9 62 16.5 67 67 N 20 31 29.8 1009 10 16.0934 0 0
12:15 pm 12:15 Sunny 74 23.1 62 16.7 67 67 N 21 33 29.8 1009 10 16.0934 0 0
12:35 pm 12:35 Sunny 74 23.3 59 15.2 60 60 NNE 20 31 29.8 1009 10 16.0934 0 0
12:55 pm 12:55 Sunny 75 23.7 59 14.8 58 58 NNE 18 30 29.8 1009 10 16.0934 0 0
1:15 pm 13:15 Sunny 75 23.9 59 15 58 58 N 15 24 29.8 1009 10 16.0934 0 0
1:35 pm 13:35 Partly Cloudy 76 24.3 56 13.3 50 50 NNE 16 26 29.8 1009 10 16.0934 0 0
1:55 pm 13:55 Cloudy 75 24 55 12.9 50 50 NE 12 19 29.8 1009 10 16.0934 0 0
2:15 pm 14:15 Cloudy 76 24.3 56 13.5 51 51 NE 10 17 29.8 1009 10 16.0934 0 0
2:35 pm 14:35 Cloudy 76 24.6 55 12.7 48 48 NE 12 19 29.8 1009 10 16.0934 0 0
2:55 pm 14:55 Mostly Cloudy 77 24.8 56 13.2 49 49 N 14 22 29.83 1010 10 16.0934 0 0
3:15 pm 15:15 Mostly Cloudy 76 24.5 55 12.8 48 48 NE 13 20 29.83 1010 10 16.0934 0 0
3:35 pm 15:35 Partly Cloudy 77 24.8 56 13.6 50 50 NE 10 17 29.83 1010 7 11.26538 0 0
3:55 pm 15:55 Mostly Cloudy 77 25 56 13.2 48 48 NNE 12 19 29.83 1010 10 16.0934 0 0
4:15 pm 16:15 Partly Cloudy 77 24.9 51 10.8 41 41 NNE 9 15 29.83 1010 10 16.0934 0 0
4:35 pm 16:35 Sunny 77 25 53 11.4 43 43 ENE 9 15 29.83 1010 10 16.0934 0 0
4:55 pm 16:55 Sunny 77 25.1 50 10.1 39 39 NE 5 7 29.8 1009 10 16.0934 0 0
5:15 pm 17:15 Sunny 77 25.1 51 10.3 39 39 Calm 29.8 1009 10 16.0934 0 0
5:35 pm 17:35 Sunny 77 25 50 9.9 39 39 Calm 29.8 1009 10 16.0934 0 0
5:55 pm 17:55 Sunny 77 25.2 52 11.3 42 42 NE 3 6 29.8 1009 10 16.0934 0 0
6:15 pm 18:15 Sunny 77 25.2 53 11.8 43 43 N 8 13 29.8 1009 10 16.0934 0 0
6:35 pm 18:35 Sunny 77 25.1 52 11.3 42 42 Calm 29.8 1009 10 16.0934 0 0
6:55 pm 18:55 Sunny 77 25.1 54 12.1 44 44 N 7 11 29.8 1009 10 16.0934 0 0
7:15 pm 19:15 Sunny 77 25 54 12.3 45 45 NE 6 9 29.8 1009 10 16.0934 0 0
7:35 pm 19:35 Sunny 76 24.5 54 12.1 46 46 NE 6 9 29.8 1009 10 16.0934 0 0
7:55 pm 19:55 Sunny 73 22.8 57 14 58 58 NE 7 11 29.8 1009 10 16.0934 0 0
8:15 pm 20:15 Sunny 74 23.6 58 14.5 57 57 NE 7 11 29.8 1009 10 16.0934 0 0
8:35 pm 20:35 Sunny 73 22.9 59 14.8 60 60 NNE 6 9 29.8 1009 10 16.0934 0 0
8:55 pm 20:55 Sunny 71 21.6 58 14.6 65 65 NNE 5 7 29.85 1011 10 16.0934 0 0
9:15 pm 21:15 Clear 70 21.2 59 15 68 68 Calm 29.85 1011 10 16.0934 0 0
9:35 pm 21:35 Clear 69 20.7 60 15.5 72 72 Calm 29.85 1011 10 16.0934 0 0
9:55 pm 21:55 Clear 69 20.8 58 14.5 67 67 Calm 29.85 1011 10 16.0934 0 0
10:15 pm 22:15 Clear 68 20.2 59 14.8 71 71 Calm 29.88 1012 10 16.0934 0 0
10:35 pm 22:35 Clear 67 19.5 59 15.1 76 76 Calm 29.88 1012 10 16.0934 0 0
10:55 pm 22:55 Clear 67 19.3 59 14.9 76 76 Calm 29.91 1013 10 16.0934 0 0
11:15 pm 23:15 Clear 66 18.7 59 15 79 79 Calm 29.91 1013 10 16.0934 0 0
11:35 pm 23:35 Clear 65 18.4 59 15.1 81 81 Calm 29.91 1013 10 16.0934 0 0
11:55 pm 23:55 Clear 65 18.2 59 15 82 82 Calm 29.91 1013 10 16.0934 0 0

Powered by AerisWeather